Regional Weather Roundup
Issued by NWS

Home | Current Version | Previous Version | Text Only | Print | Product List | Glossary On
Versions: 1 2 3 4 5 6 7 8 9 10 11 12 13 14 15 16 17 18 19 20 21 22 23 24 25 26 27 28 29 30 31 32 33 34 35 36 37 38 39 40 41 42 43 44 45 46 47 48 49 50
000
ASUS43 KFSD 292110
RWRSD

WEATHER ROUNDUP FOR SOUTH DAKOTA
NATIONAL WEATHER SERVICE SIOUX FALLS SD
400 PM CDT SUN MAR 29 2015

NOTE: "FAIR" INDICATES FEW OR NO CLOUDS BELOW 12,000 FEET WITH NO
SIGNIFICANT WEATHER AND/OR OBSTRUCTIONS TO VISIBILITY.


SDZ001>005-009-010-012>017-292200-
NORTHWEST AND NORTH CENTRAL SOUTH DAKOTA

CITY           SKY/WX    TMP DP  RH WIND       PRES   REMARKS
BUFFALO          N/A     61  28  28 NW24G33   30.00F
FAITH            N/A     60  27  28 NW21      30.06F
MOBRIDGE       SUNNY     60  25  26 NW18G25   30.01F
$$

SDZ012>016-024>037-041>051-057-063-072>074-292200-
SOUTHWEST AND SOUTH CENTRAL SOUTH DAKOTA

CITY           SKY/WX    TMP DP  RH WIND       PRES   REMARKS
RAPID CTY ARPT SUNNY     62  25  24 N16G24    30.08F
PIERRE         SUNNY     60  24  25 NW18      30.07F
CUSTER         MOSUNNY   53  20  27 W15G22    30.14F
ELLSWORTH AFB  SUNNY     63  27  25 N16G25    30.07
PHILIP         SUNNY     63  25  23 NW23G30   30.08F
PINE RIDGE     SUNNY     61  24  24 SW7       30.13F
SPEARFISH      FAIR      59  25  27 NW12G25   30.12S
WINNER         FAIR      62  19  19 NW18      30.10F
$$

SDZ004>011-016>023-039-040-292200-
NORTHEAST SOUTH DAKOTA

CITY           SKY/WX    TMP DP  RH WIND       PRES   REMARKS
ABERDEEN       SUNNY     60  22  23 NW22G33   30.01F
WATERTOWN      SUNNY     55  24  30 NW29G38   29.97R
SISSETON         N/A     55  25  31 N33G39    29.93R
$$

SDZ017-020-022-023-036>040-048>070-292200-
SOUTHEAST SOUTH DAKOTA

CITY           SKY/WX    TMP DP  RH WIND       PRES   REMARKS
SIOUX FALLS    MOSUNNY   59  23  25 NW26G37   29.99R
HURON          SUNNY     60  22  23 NW24G36   30.02S
CHAMBERLAIN    SUNNY     58  22  25 NW18G29   30.08F
MITCHELL       SUNNY     62  23  22 N21G32    30.04S
YANKTON        SUNNY     61  23  23 N23G30    30.05R
$$

ABBREVIATIONS USED IN REMARKS
   TC - TEMPERATURE IN CELSIUS
  WCI - WIND CHILL INDEX
   HX - HEAT INDEX
  VSB - VISIBILITY



USA.gov is the U.S. government's official web portal to all federal, state and local government web resources and services.